Time,TemperatureF,DewpointF,PressureIn,WindDirection,WindDirectionDegrees,WindSpeedMPH,WindSpeedGustMPH,Humidity,HourlyPrecipIn,Conditions,Clouds,dailyrainin,SoftwareType,DateUTC
2013-05-09 00:00:00,43.5,39.3,29.47,North,360,14.0,32.0,85,0.00,,,0.31,Wunderground v.1.15,2013-05-08 23:00:00,
2013-05-09 00:05:00,43.7,39.5,29.46,North,360,14.0,32.0,85,0.00,,,0.00,Wunderground v.1.15,2013-05-08 23:05:00,
2013-05-09 00:15:00,43.8,39.3,29.46,North,360,14.0,14.0,84,0.00,,,0.00,Wunderground v.1.15,2013-05-08 23:15:00,
2013-05-09 00:20:00,43.7,39.2,29.45,North,360,13.0,16.0,84,0.00,,,0.00,Wunderground v.1.15,2013-05-08 23:20:00,
2013-05-09 00:30:00,43.6,38.8,29.45,North,360,14.0,14.0,83,0.00,,,0.00,Wunderground v.1.15,2013-05-08 23:30:00,
2013-05-09 00:40:00,43.8,39.3,29.45,North,360,17.0,17.0,84,0.00,,,0.00,Wunderground v.1.15,2013-05-08 23:40:00,
2013-05-09 00:45:00,43.8,39.3,29.45,North,360,18.0,18.0,84,0.00,,,0.00,Wunderground v.1.15,2013-05-08 23:45:00,
2013-05-09 00:55:00,43.6,39.4,29.44,North,360,15.0,20.0,85,0.00,,,0.00,Wunderground v.1.15,2013-05-08 23:55:00,
2013-05-09 01:05:00,43.5,39.3,29.44,North,360,16.0,35.0,85,0.00,,,0.00,Wunderground v.1.15,2013-05-09 00:05:00,
2013-05-09 01:15:00,43.4,39.2,29.44,North,360,17.0,35.0,85,0.00,,,0.00,Wunderground v.1.15,2013-05-09 00:15:00,
2013-05-09 01:20:00,43.5,39.3,29.43,North,360,16.0,35.0,85,0.00,,,0.00,Wunderground v.1.15,2013-05-09 00:20:00,
2013-05-09 01:30:00,43.8,39.6,29.43,North,360,17.0,17.0,85,0.00,,,0.00,Wunderground v.1.15,2013-05-09 00:30:00,
2013-05-09 01:35:00,43.9,39.7,29.42,North,360,17.0,20.0,85,0.00,,,0.00,Wunderground v.1.15,2013-05-09 00:35:00,
2013-05-09 01:40:00,44.0,39.8,29.42,North,360,16.0,16.0,85,0.00,,,0.00,Wunderground v.1.15,2013-05-09 00:40:00,
2013-05-09 01:50:00,44.1,40.2,29.42,North,360,13.0,13.0,86,0.00,,,0.01,Wunderground v.1.15,2013-05-09 00:50:00,
2013-05-09 02:00:00,43.8,40.2,29.42,North,360,17.0,17.0,87,0.00,,,0.01,Wunderground v.1.15,2013-05-09 01:00:00,
2013-05-09 02:05:00,43.6,40.0,29.41,North,360,18.0,24.0,87,0.00,,,0.01,Wunderground v.1.15,2013-05-09 01:05:00,
2013-05-09 02:15:00,43.5,39.6,29.41,North,360,16.0,20.0,86,0.00,,,0.01,Wunderground v.1.15,2013-05-09 01:15:00,
2013-05-09 02:20:00,43.5,39.6,29.39,North,360,17.0,17.0,86,0.00,,,0.01,Wunderground v.1.15,2013-05-09 01:20:00,
2013-05-09 02:30:00,43.6,40.0,29.39,North,360,17.0,21.0,87,0.00,,,0.01,Wunderground v.1.15,2013-05-09 01:30:00,
2013-05-09 02:35:00,43.6,40.3,29.38,North,360,18.0,21.0,88,0.00,,,0.01,Wunderground v.1.15,2013-05-09 01:35:00,
2013-05-09 02:45:00,43.7,40.7,29.38,North,360,17.0,17.0,89,0.00,,,0.01,Wunderground v.1.15,2013-05-09 01:45:00,
2013-05-09 02:50:00,43.8,40.8,29.38,North,360,18.0,20.0,89,0.00,,,0.01,Wunderground v.1.15,2013-05-09 01:50:00,
2013-05-09 02:55:00,43.8,40.8,29.38,North,360,19.0,23.0,89,0.00,,,0.01,Wunderground v.1.15,2013-05-09 01:55:00,
2013-05-09 03:05:00,43.7,40.7,29.37,North,360,18.0,35.0,89,0.00,,,0.01,Wunderground v.1.15,2013-05-09 02:05:00,
2013-05-09 03:15:00,43.8,40.8,29.37,North,360,18.0,35.0,89,0.00,,,0.01,Wunderground v.1.15,2013-05-09 02:15:00,
2013-05-09 03:20:00,43.8,40.8,29.36,North,360,17.0,35.0,89,0.00,,,0.01,Wunderground v.1.15,2013-05-09 02:20:00,
2013-05-09 03:25:00,43.9,41.2,29.36,North,360,17.0,35.0,90,0.00,,,0.01,Wunderground v.1.15,2013-05-09 02:25:00,
2013-05-09 03:35:00,43.9,41.2,29.35,North,360,16.0,24.0,90,0.00,,,0.01,Wunderground v.1.15,2013-05-09 02:35:00,
2013-05-09 03:40:00,43.9,41.2,29.35,North,360,17.0,35.0,90,0.00,,,0.01,Wunderground v.1.15,2013-05-09 02:40:00,
2013-05-09 03:50:00,44.0,41.3,29.34,North,360,17.0,17.0,90,0.00,,,0.01,Wunderground v.1.15,2013-05-09 02:50:00,
2013-05-09 03:55:00,44.0,41.3,29.34,North,360,17.0,24.0,90,0.00,,,0.01,Wunderground v.1.15,2013-05-09 02:55:00,
2013-05-09 04:05:00,44.1,41.4,29.34,North,360,16.0,35.0,90,0.00,,,0.01,Wunderground v.1.15,2013-05-09 03:05:00,
2013-05-09 04:15:00,44.2,41.5,29.34,North,360,17.0,17.0,90,0.00,,,0.01,Wunderground v.1.15,2013-05-09 03:15:00,
2013-05-09 04:25:00,44.2,41.5,29.33,North,360,18.0,27.0,90,0.00,,,0.01,Wunderground v.1.15,2013-05-09 03:25:00,
2013-05-09 04:30:00,44.1,41.4,29.33,North,360,20.0,20.0,90,0.00,,,0.01,Wunderground v.1.15,2013-05-09 03:30:00,
2013-05-09 04:40:00,44.1,41.4,29.31,North,360,19.0,19.0,90,0.00,,,0.01,Wunderground v.1.15,2013-05-09 03:40:00,
2013-05-09 04:45:00,44.2,41.5,29.31,North,360,19.0,19.0,90,0.00,,,0.01,Wunderground v.1.15,2013-05-09 03:45:00,
2013-05-09 04:55:00,44.2,41.5,29.31,North,360,18.0,20.0,90,0.00,,,0.01,Wunderground v.1.15,2013-05-09 03:55:00,
2013-05-09 05:00:00,44.2,41.5,29.31,North,360,17.0,25.0,90,0.00,,,0.01,Wunderground v.1.15,2013-05-09 04:00:00,
2013-05-09 05:05:00,44.1,41.4,29.30,North,360,18.0,37.0,90,0.00,,,0.01,Wunderground v.1.15,2013-05-09 04:05:00,
2013-05-09 05:10:00,44.1,41.4,29.30,North,360,20.0,37.0,90,0.00,,,0.01,Wunderground v.1.15,2013-05-09 04:10:00,
2013-05-09 05:15:00,44.1,41.4,29.30,North,360,20.0,37.0,90,0.00,,,0.01,Wunderground v.1.15,2013-05-09 04:15:00,
2013-05-09 05:20:00,44.1,41.4,29.29,North,360,19.0,19.0,90,0.00,,,0.01,Wunderground v.1.15,2013-05-09 04:20:00,
2013-05-09 05:25:00,44.1,41.6,29.29,North,360,18.0,22.0,91,0.00,,,0.01,Wunderground v.1.15,2013-05-09 04:25:00,
2013-05-09 05:35:00,44.1,41.6,29.28,North,360,19.0,22.0,91,0.00,,,0.01,Wunderground v.1.15,2013-05-09 04:35:00,
2013-05-09 05:40:00,44.0,41.5,29.28,North,360,18.0,37.0,91,0.00,,,0.02,Wunderground v.1.15,2013-05-09 04:40:00,
2013-05-09 05:45:00,44.0,41.5,29.28,North,360,18.0,37.0,91,0.00,,,0.02,Wunderground v.1.15,2013-05-09 04:45:00,
2013-05-09 05:55:00,44.0,41.5,29.27,North,360,17.0,37.0,91,0.04,,,0.02,Wunderground v.1.15,2013-05-09 04:55:00,
2013-05-09 06:00:00,43.9,41.4,29.27,North,360,17.0,37.0,91,0.04,,,0.02,Wunderground v.1.15,2013-05-09 05:00:00,
2013-05-09 06:05:00,43.9,41.7,29.27,North,360,17.0,37.0,92,0.04,,,0.02,Wunderground v.1.15,2013-05-09 05:05:00,
2013-05-09 06:15:00,43.9,41.7,29.27,North,360,17.0,22.0,92,0.00,,,0.03,Wunderground v.1.15,2013-05-09 05:15:00,
2013-05-09 06:25:00,43.8,41.6,29.26,North,360,16.0,17.0,92,0.17,,,0.04,Wunderground v.1.15,2013-05-09 05:25:00,
2013-05-09 06:35:00,43.5,41.3,29.25,North,360,19.0,26.0,92,0.17,,,0.06,Wunderground v.1.15,2013-05-09 05:35:00,
2013-05-09 06:45:00,43.5,41.3,29.25,North,360,18.0,26.0,92,0.08,,,0.07,Wunderground v.1.15,2013-05-09 05:45:00,
2013-05-09 06:50:00,43.6,41.4,29.23,North,360,18.0,23.0,92,0.06,,,0.07,Wunderground v.1.15,2013-05-09 05:50:00,
2013-05-09 07:00:00,43.8,41.6,29.23,North,360,18.0,27.0,92,0.04,,,0.08,Wunderground v.1.15,2013-05-09 06:00:00,
2013-05-09 07:05:00,43.8,41.9,29.22,North,360,17.0,42.0,93,0.04,,,0.08,Wunderground v.1.15,2013-05-09 06:05:00,
2013-05-09 07:15:00,44.2,42.3,29.22,North,360,17.0,42.0,93,0.14,,,0.10,Wunderground v.1.15,2013-05-09 06:15:00,
2013-05-09 07:20:00,44.4,42.5,29.22,North,360,16.0,16.0,93,0.18,,,0.11,Wunderground v.1.15,2013-05-09 06:20:00,
2013-05-09 07:30:00,44.7,42.8,29.22,North,360,14.0,42.0,93,0.17,,,0.13,Wunderground v.1.15,2013-05-09 06:30:00,
2013-05-09 07:35:00,44.9,43.0,29.20,North,360,14.0,42.0,93,0.12,,,0.14,Wunderground v.1.15,2013-05-09 06:35:00,
2013-05-09 07:45:00,45.1,43.5,29.20,North,360,16.0,42.0,94,0.05,,,0.14,Wunderground v.1.15,2013-05-09 06:45:00,
2013-05-09 07:50:00,45.3,43.7,29.20,North,360,15.0,42.0,94,0.04,,,0.15,Wunderground v.1.15,2013-05-09 06:50:00,
2013-05-09 08:00:00,45.6,44.0,29.20,North,360,14.0,14.0,94,0.04,,,0.15,Wunderground v.1.15,2013-05-09 07:00:00,
2013-05-09 08:05:00,45.8,44.2,29.20,North,360,12.0,14.0,94,0.04,,,0.15,Wunderground v.1.15,2013-05-09 07:05:00,
2013-05-09 08:15:00,46.1,44.5,29.20,North,360,14.0,17.0,94,0.00,,,0.16,Wunderground v.1.15,2013-05-09 07:15:00,
2013-05-09 08:20:00,46.3,44.7,29.20,North,360,13.0,19.0,94,0.00,,,0.16,Wunderground v.1.15,2013-05-09 07:20:00,
2013-05-09 08:30:00,46.6,45.0,29.20,North,360,11.0,11.0,94,0.00,,,0.17,Wunderground v.1.15,2013-05-09 07:30:00,
2013-05-09 08:40:00,47.0,45.4,29.20,North,360,11.0,13.0,94,0.06,,,0.17,Wunderground v.1.15,2013-05-09 07:40:00,
2013-05-09 08:45:00,47.2,45.6,29.20,North,360,10.0,13.0,94,0.06,,,0.17,Wunderground v.1.15,2013-05-09 07:45:00,
2013-05-09 08:50:00,47.5,46.1,29.21,North,360,10.0,10.0,95,0.05,,,0.17,Wunderground v.1.15,2013-05-09 07:50:00,
2013-05-09 09:00:00,48.1,46.7,29.21,North,360,9.0,12.0,95,0.00,,,0.17,Wunderground v.1.15,2013-05-09 08:00:00,
2013-05-09 09:05:00,48.4,46.8,29.21,North,360,8.0,40.0,94,0.00,,,0.17,Wunderground v.1.15,2013-05-09 08:05:00,
2013-05-09 09:15:00,48.8,47.4,29.21,North,360,8.0,40.0,95,0.00,,,0.17,Wunderground v.1.15,2013-05-09 08:15:00,
2013-05-09 09:20:00,48.9,47.5,29.22,North,360,8.0,8.0,95,0.00,,,0.17,Wunderground v.1.15,2013-05-09 08:20:00,
2013-05-09 09:30:00,49.4,48.0,29.22,North,360,9.0,40.0,95,0.00,,,0.17,Wunderground v.1.15,2013-05-09 08:30:00,
2013-05-09 09:40:00,49.5,48.1,29.22,North,360,9.0,9.0,95,0.00,,,0.18,Wunderground v.1.15,2013-05-09 08:40:00,
2013-05-09 09:50:00,49.7,48.3,29.23,North,360,9.0,9.0,95,0.00,,,0.18,Wunderground v.1.15,2013-05-09 08:50:00,
2013-05-09 09:55:00,49.8,48.4,29.23,North,360,9.0,10.0,95,0.04,,,0.19,Wunderground v.1.15,2013-05-09 08:55:00,
2013-05-09 10:05:00,50.0,48.6,29.23,North,360,9.0,9.0,95,0.07,,,0.20,Wunderground v.1.15,2013-05-09 09:05:00,
2013-05-09 10:15:00,50.0,48.6,29.23,North,360,8.0,11.0,95,0.13,,,0.21,Wunderground v.1.15,2013-05-09 09:15:00,
2013-05-09 10:20:00,50.0,48.6,29.24,North,360,10.0,14.0,95,0.20,,,0.23,Wunderground v.1.15,2013-05-09 09:20:00,
2013-05-09 10:25:00,49.9,48.5,29.24,North,360,12.0,14.0,95,0.20,,,0.24,Wunderground v.1.15,2013-05-09 09:25:00,
2013-05-09 10:35:00,49.0,47.3,29.26,North,360,13.0,15.0,94,0.09,,,0.24,Wunderground v.1.15,2013-05-09 09:35:00,
2013-05-09 10:40:00,48.3,46.7,29.26,North,360,16.0,21.0,94,0.05,,,0.24,Wunderground v.1.15,2013-05-09 09:40:00,
2013-05-09 10:50:00,49.2,47.8,29.27,North,360,17.0,17.0,95,0.00,,,0.24,Wunderground v.1.15,2013-05-09 09:50:00,
2013-05-09 10:55:00,49.9,48.2,29.27,North,360,17.0,17.0,94,0.00,,,0.24,Wunderground v.1.15,2013-05-09 09:55:00,
2013-05-09 11:05:00,49.5,47.6,29.27,North,360,17.0,21.0,93,0.00,,,0.24,Wunderground v.1.15,2013-05-09 10:05:00,
2013-05-09 11:15:00,50.2,47.4,29.27,North,360,21.0,28.0,90,0.00,,,0.24,Wunderground v.1.15,2013-05-09 10:15:00,
2013-05-09 11:25:00,51.8,48.4,29.28,North,360,19.0,28.0,88,0.00,,,0.24,Wunderground v.1.15,2013-05-09 10:25:00,
2013-05-09 11:35:00,51.2,46.8,29.30,North,360,20.0,28.0,85,0.00,,,0.24,Wunderground v.1.15,2013-05-09 10:35:00,
2013-05-09 11:45:00,50.8,47.1,29.30,North,360,19.0,28.0,87,0.00,,,0.24,Wunderground v.1.15,2013-05-09 10:45:00,
2013-05-09 11:55:00,51.8,47.4,29.30,North,360,17.0,28.0,85,0.00,,,0.24,Wunderground v.1.15,2013-05-09 10:55:00,
2013-05-09 12:05:00,51.2,46.2,29.31,North,360,20.0,20.0,83,0.00,,,0.24,Wunderground v.1.15,2013-05-09 11:05:00,
2013-05-09 12:10:00,52.2,47.5,29.31,North,360,20.0,20.0,84,0.00,,,0.24,Wunderground v.1.15,2013-05-09 11:10:00,
2013-05-09 12:20:00,53.1,47.4,29.32,North,360,19.0,19.0,81,0.00,,,0.24,Wunderground v.1.15,2013-05-09 11:20:00,
2013-05-09 12:30:00,53.5,47.8,29.32,North,360,16.0,18.0,81,0.00,,,0.24,Wunderground v.1.15,2013-05-09 11:30:00,
2013-05-09 12:35:00,52.9,46.2,29.33,North,360,17.0,27.0,78,0.00,,,0.24,Wunderground v.1.15,2013-05-09 11:35:00,
2013-05-09 12:45:00,52.5,45.8,29.33,North,360,21.0,25.0,78,0.00,,,0.24,Wunderground v.1.15,2013-05-09 11:45:00,
2013-05-09 12:55:00,52.0,45.4,29.34,North,360,18.0,29.0,78,0.00,,,0.24,Wunderground v.1.15,2013-05-09 11:55:00,
2013-05-09 13:00:00,52.9,46.6,29.34,North,360,20.0,22.0,79,0.00,,,0.24,Wunderground v.1.15,2013-05-09 12:00:00,
2013-05-09 13:05:00,51.9,45.6,29.35,North,360,20.0,31.0,79,0.00,,,0.24,Wunderground v.1.15,2013-05-09 12:05:00,
2013-05-09 13:15:00,53.0,45.6,29.35,North,360,23.0,24.0,76,0.00,,,0.24,Wunderground v.1.15,2013-05-09 12:15:00,
2013-05-09 13:25:00,54.3,46.9,29.34,North,360,22.0,27.0,76,0.00,,,0.24,Wunderground v.1.15,2013-05-09 12:25:00,
2013-05-09 13:30:00,54.5,46.0,29.34,North,360,23.0,31.0,73,0.00,,,0.24,Wunderground v.1.15,2013-05-09 12:30:00,
2013-05-09 13:35:00,54.4,46.3,29.36,North,360,23.0,31.0,74,0.00,,,0.24,Wunderground v.1.15,2013-05-09 12:35:00,
2013-05-09 13:45:00,54.2,47.5,29.36,North,360,19.0,31.0,78,0.00,,,0.24,Wunderground v.1.15,2013-05-09 12:45:00,
2013-05-09 13:50:00,54.4,45.9,29.36,North,360,20.0,20.0,73,0.00,,,0.24,Wunderground v.1.15,2013-05-09 12:50:00,
2013-05-09 13:55:00,54.1,45.3,29.36,North,360,21.0,21.0,72,0.00,,,0.24,Wunderground v.1.15,2013-05-09 12:55:00,
2013-05-09 14:05:00,54.0,44.8,29.38,North,360,20.0,23.0,71,0.00,,,0.24,Wunderground v.1.15,2013-05-09 13:05:00,
2013-05-09 14:15:00,53.0,44.2,29.38,North,360,21.0,35.0,72,0.00,,,0.24,Wunderground v.1.15,2013-05-09 13:15:00,
2013-05-09 14:20:00,52.9,44.8,29.39,North,360,22.0,22.0,74,0.00,,,0.24,Wunderground v.1.15,2013-05-09 13:20:00,
2013-05-09 14:25:00,52.5,44.1,29.39,North,360,21.0,22.0,73,0.00,,,0.24,Wunderground v.1.15,2013-05-09 13:25:00,
2013-05-09 14:35:00,52.0,43.6,29.39,North,360,20.0,20.0,73,0.00,,,0.24,Wunderground v.1.15,2013-05-09 13:35:00,
2013-05-09 14:40:00,51.9,44.6,29.39,North,360,18.0,18.0,76,0.00,,,0.24,Wunderground v.1.15,2013-05-09 13:40:00,